Date,TemperatureHighF,TemperatureAvgF,TemperatureLowF,DewpointHighF,DewpointAvgF,DewpointLowF,HumidityHigh,HumidityAvg,HumidityLow,PressureMaxIn,PressureMinIn,WindSpeedMaxMPH,WindSpeedAvgMPH,GustSpeedMaxMPH,PrecipitationSumIn
2013-1-1,75,65,54,60,57,53,97,78,55,30.13,29.96,19,4,35,0.00
2013-1-2,75,68,62,68,64,60,98,88,70,29.99,29.92,14,3,25,0.00
2013-1-3,78,67,60,68,64,60,100,92,57,30.07,29.94,14,3,21,0.05
2013-1-4,64,60,57,60,58,56,98,93,83,30.19,30.05,10,4,20,0.01
2013-1-5,76,65,57,63,59,53,94,82,64,30.21,30.08,11,3,25,0.00
2013-1-6,78,68,62,69,65,60,100,91,71,30.12,29.99,16,4,30,0.00
2013-1-7,66,63,61,64,60,56,97,90,81,30.12,30.02,13,4,23,0.00
2013-1-8,82,70,61,68,64,59,98,82,56,30.14,30.03,10,3,20,0.00
2013-1-9,84,74,69,71,68,64,98,81,52,30.19,30.08,18,4,26,0.00
2013-1-10,83,74,68,69,65,61,98,74,50,30.20,30.11,20,6,33,0.00
2013-1-11,83,72,64,68,63,58,96,77,44,30.18,30.04,17,4,30,0.00
2013-1-12,82,71,65,68,66,64,97,84,56,30.10,29.99,15,4,27,0.00
2013-1-13,80,71,64,67,65,63,96,81,58,30.08,29.98,16,3,23,0.00
2013-1-14,78,70,62,65,61,57,96,77,48,30.10,30.03,14,3,24,0.00
2013-1-15,78,70,60,65,62,58,96,77,53,30.06,29.97,13,3,25,0.00
2013-1-16,79,70,64,65,63,58,96,79,50,30.02,29.92,14,3,24,0.00
2013-1-17,72,64,56,70,59,46,99,86,63,30.08,29.92,37,17,50,0.02
2013-1-18,64,54,43,57,46,34,93,75,60,30.23,30.08,30,10,52,0.00
2013-1-19,74,64,54,60,56,49,89,75,61,30.19,30.03,15,5,31,0.00
2013-1-20,74,66,61,63,60,58,91,83,67,30.09,29.95,13,2,21,0.00
2013-1-21,72,65,61,63,58,53,87,79,69,30.03,29.95,26,7,31,0.00
2013-1-22,66,60,50,53,41,30,76,52,26,30.20,30.00,13,4,29,0.00
2013-1-23,68,56,46,50,39,31,82,55,27,30.28,30.19,18,3,25,0.00
2013-1-24,70,57,42,54,46,40,92,70,37,30.26,30.17,18,4,24,0.00
2013-1-25,72,60,49,58,51,46,98,77,40,30.24,30.11,18,3,25,0.00
2013-1-26,71,61,50,59,54,49,97,81,51,30.21,30.10,15,4,24,0.00
2013-1-27,78,65,52,61,54,50,98,72,39,30.22,30.12,11,2,24,0.00
2013-1-28,81,69,62,64,60,57,92,75,45,30.23,30.12,18,4,26,0.00
2013-1-29,81,70,61,67,64,59,97,80,55,30.15,30.00,18,6,29,0.00
2013-1-30,78,72,66,67,65,63,91,78,61,30.01,29.84,31,16,55,0.00
2013-1-31,72,59,53,67,46,30,94,63,34,30.17,29.85,34,12,46,0.02
2013-2-1,66,56,42,45,36,26,77,51,23,30.28,30.14,20,4,29,0.00
2013-2-2,69,57,45,51,43,31,84,62,27,30.22,30.08,16,4,21,0.00
2013-2-3,66,57,44,56,49,41,92,76,57,30.13,30.02,21,4,26,0.00
2013-2-4,68,56,45,51,44,33,92,70,27,30.07,29.97,20,3,31,0.00
2013-2-5,74,60,47,56,47,40,85,65,45,30.01,29.92,14,2,21,0.00
2013-2-6,78,67,57,64,58,53,90,74,49,30.03,29.94,17,3,23,0.00
2013-2-7,78,69,62,67,63,58,95,82,53,29.98,29.83,24,8,51,0.05
2013-2-8,72,67,61,67,62,57,98,84,69,30.00,29.82,27,11,37,0.00
2013-2-9,77,65,56,58,55,50,95,72,42,30.11,29.99,17,4,26,0.00
2013-2-10,81,69,60,62,59,56,89,71,45,30.16,30.05,20,7,38,0.00
2013-2-11,78,70,61,66,63,59,93,80,61,30.11,30.00,21,8,31,0.00
2013-2-12,78,72,65,70,68,64,98,88,74,30.02,29.88,24,10,41,0.00
2013-2-13,78,72,63,72,68,53,99,88,64,29.91,29.79,37,13,48,0.01
2013-2-14,66,63,60,62,58,52,98,87,64,29.95,29.87,18,3,39,0.37
2013-2-15,65,61,58,60,57,52,98,88,74,30.00,29.89,14,4,19,0.09
2013-2-16,66,59,53,53,48,36,89,68,47,30.04,29.86,38,17,58,0.00
2013-2-17,56,47,39,37,26,11,70,45,19,30.26,30.04,33,8,54,0.00
2013-2-18,69,53,36,47,36,24,74,54,32,30.27,30.12,17,5,25,0.00
2013-2-19,74,64,50,62,55,46,91,74,54,30.13,30.01,19,6,32,0.00
2013-2-20,75,66,61,65,62,58,98,87,65,30.04,29.93,18,4,23,0.00
2013-2-21,79,68,58,66,61,56,94,80,59,30.03,29.91,15,4,29,0.00
2013-2-22,80,71,63,68,66,62,97,84,63,29.99,29.91,22,8,37,0.00
2013-2-23,79,73,69,72,70,67,98,90,79,29.92,29.82,25,10,37,0.00
2013-2-24,80,72,68,70,69,68,100,90,69,29.89,29.81,16,5,27,0.00
2013-2-25,81,73,67,70,69,67,100,86,67,29.83,29.70,21,7,34,0.00
2013-2-26,76,72,66,72,68,63,98,87,74,29.82,29.63,25,11,46,0.25
2013-2-27,69,66,60,63,57,54,85,75,63,29.91,29.80,18,10,26,0.00
2013-2-28,69,64,61,56,53,47,81,67,54,29.94,29.85,23,12,35,0.00
2013-3-1,61,59,54,49,46,40,68,61,52,29.94,29.84,21,10,33,0.00
2013-3-4,61,54,46,44,40,28,84,61,30,30.09,30.06,20,8,27,0.00
2013-3-5,70,58,43,63,50,38,93,76,56,30.09,29.97,17,5,28,0.00
2013-3-6,66,59,54,64,48,38,93,68,47,30.06,29.90,35,19,50,0.02
2013-3-7,59,53,46,46,39,32,82,60,38,30.16,30.05,24,8,32,0.00
2013-3-8,69,56,42,50,44,32,94,68,26,30.16,30.06,19,6,27,0.00
2013-3-9,77,62,47,53,46,39,90,58,27,30.13,30.03,12,3,25,0.00
2013-3-10,79,65,57,58,54,50,86,68,41,30.08,29.97,19,6,34,0.00
2013-3-11,76,67,58,61,58,55,91,73,50,30.02,29.83,21,8,38,0.00
2013-3-12,70,65,59,68,60,51,98,84,71,29.97,29.78,28,14,40,0.23
2013-3-13,59,59,58,53,52,51,81,79,76,29.98,29.97,11,7,25,0.00
2013-3-18,75,69,61,68,65,58,94,86,70,29.95,29.81,26,10,42,0.00
2013-3-19,81,70,64,68,64,62,97,82,55,29.93,29.81,25,4,31,0.00
2013-3-20,72,66,60,66,62,56,96,87,58,29.89,29.74,28,6,39,0.17
2013-3-21,66,60,51,60,43,26,96,57,27,29.92,29.80,24,8,31,0.01
2013-3-22,76,66,47,69,56,42,95,71,44,29.91,29.80,16,5,26,0.11
2013-3-23,78,71,65,73,69,65,99,94,82,29.89,29.73,21,8,35,0.01
2013-3-24,78,73,70,73,71,68,98,93,83,29.75,29.59,23,13,38,0.00
2013-3-25,70,63,58,68,49,33,95,63,35,29.98,29.68,30,20,42,0.00
2013-3-26,59,54,51,47,38,33,64,53,45,30.17,29.97,38,20,54,0.00
2013-3-27,55,50,43,40,35,30,71,56,43,30.25,30.14,30,8,37,0.00
2013-3-28,67,54,41,44,38,23,88,59,19,30.22,30.13,25,7,33,0.00
2013-3-29,73,60,46,53,43,31,82,59,22,30.25,30.11,19,4,45,0.00
2013-3-30,73,62,50,58,49,43,88,65,39,30.17,30.06,16,5,29,0.00
2013-3-31,77,67,58,62,56,51,88,70,46,30.09,29.94,22,6,29,0.00
2013-4-1,78,71,66,68,65,61,95,82,65,29.96,29.89,25,9,36,0.00
2013-4-2,77,68,63,66,62,55,99,82,48,30.02,29.92,16,5,25,0.00
2013-4-3,83,72,63,69,65,60,97,80,53,30.00,29.86,19,8,33,0.00
2013-4-4,72,69,65,70,67,64,99,93,81,30.00,29.78,24,5,33,2.41
2013-4-5,70,67,62,67,61,55,94,80,63,29.90,29.75,32,17,43,0.02
2013-4-6,70,64,58,61,56,52,85,75,59,30.02,29.91,22,8,39,0.01
2013-4-7,80,69,60,64,59,55,95,71,43,30.07,29.96,18,4,26,0.02
2013-4-8,84,72,63,65,60,53,89,68,35,30.05,29.95,17,5,22,0.40
2013-4-9,84,73,64,66,63,59,92,72,45,30.06,29.97,14,5,25,0.18
2013-4-10,85,74,64,69,64,61,92,74,51,30.02,29.88,19,5,30,0.00
2013-4-11,85,78,69,72,70,64,95,76,58,29.90,29.74,24,12,41,0.00
2013-4-12,79,76,74,74,72,66,93,86,74,29.84,29.72,25,10,43,0.00
2013-4-13,81,74,69,70,68,65,95,81,64,29.90,29.80,19,5,30,0.00
2013-4-14,83,76,69,73,68,61,95,79,63,29.93,29.77,28,10,45,0.00
2013-4-15,84,76,68,70,65,61,84,70,54,29.99,29.85,18,5,25,0.00
2013-4-16,90,79,69,74,69,65,96,73,45,30.04,29.94,13,4,25,0.00
2013-4-17,87,77,68,68,64,57,93,66,38,30.05,29.92,13,4,26,0.00
2013-4-18,85,77,67,71,67,64,92,73,51,29.96,29.86,14,6,26,0.00
2013-4-19,84,78,72,73,70,67,94,78,58,29.92,29.85,25,11,41,0.00
2013-4-20,76,72,65,73,65,60,93,79,67,30.05,29.89,16,6,28,0.00
2013-4-21,83,71,62,70,63,57,92,79,54,30.04,29.92,18,5,29,0.00
2013-4-22,81,72,67,70,67,63,98,85,59,30.00,29.88,17,4,23,0.00
2013-4-23,84,74,66,65,62,58,92,70,43,30.01,29.92,11,4,21,0.00
2013-4-24,83,72,61,67,62,54,95,74,38,30.05,29.99,20,5,29,0.00
2013-4-25,81,74,64,70,65,61,93,75,54,30.12,30.01,23,7,33,0.00
2013-4-26,74,68,65,65,62,62,90,83,69,30.13,30.06,1,0,15,0.00
2013-5-2,78,74,70,70,68,66,94,82,70,29.85,29.73,15,3,21,0.00
2013-5-3,78,73,67,70,67,65,96,82,68,29.75,29.64,27,8,38,0.00
2013-5-4,77,72,66,69,67,64,94,84,73,29.74,29.61,34,12,50,0.00
2013-5-5,74,69,66,67,56,48,94,66,42,29.88,29.72,31,17,44,0.00
2013-5-6,72,69,65,63,58,55,83,68,59,29.94,29.83,20,11,33,0.00
2013-5-7,74,69,62,61,58,54,87,69,55,29.98,29.90,23,8,32,0.00
2013-5-8,76,70,62,64,60,57,94,72,53,30.06,29.95,21,6,33,0.00
2013-5-9,81,72,63,66,62,56,93,73,44,30.07,30.00,22,5,30,0.00
2013-5-10,86,76,64,72,67,60,98,76,47,30.05,29.92,18,5,31,0.00
2013-5-11,85,78,72,74,72,66,97,84,55,29.98,29.91,17,5,29,0.00
2013-5-12,83,77,72,74,71,67,96,83,65,29.97,29.86,22,7,33,0.00
2013-5-13,82,75,70,68,61,46,88,64,38,30.05,29.92,29,7,41,0.00
2013-5-14,80,71,59,58,50,42,72,50,26,30.12,30.02,27,7,34,0.00
2013-5-15,86,74,62,65,57,46,80,59,28,30.12,29.99,22,3,28,0.00
2013-5-16,81,75,66,67,62,58,86,66,47,30.04,29.92,19,6,31,0.00
2013-5-17,82,75,67,68,65,62,85,71,56,30.01,29.94,21,6,29,0.00
2013-5-18,84,78,70,73,68,62,94,74,49,30.03,29.94,22,7,29,0.00
2013-5-19,85,78,70,70,67,62,92,71,48,30.01,29.90,21,5,30,0.00
2013-5-20,88,78,71,74,68,64,88,74,50,29.99,29.88,25,5,31,0.00
2013-5-21,84,75,69,71,68,66,96,80,58,29.94,29.83,19,3,31,0.00
2013-5-22,82,76,69,72,69,67,92,81,65,29.89,29.80,23,6,29,0.00
2013-5-23,83,78,71,73,71,67,94,80,64,29.93,29.83,24,8,33,0.00
2013-5-24,85,80,75,75,71,64,90,75,51,29.99,29.89,23,8,34,0.00
2013-5-25,90,81,71,70,64,58,88,60,36,30.07,29.96,13,4,28,0.00
2013-5-26,87,76,66,64,58,44,88,56,26,30.12,30.01,8,3,21,0.00
2013-5-27,88,77,66,66,62,57,88,61,38,30.09,29.95,11,4,28,0.00
2013-5-28,90,77,71,73,69,66,90,76,48,30.05,29.92,19,6,38,0.00
2013-5-29,87,77,71,72,70,65,95,81,51,30.00,29.92,17,5,29,0.00
2013-5-30,86,78,72,72,70,68,94,77,55,29.98,29.90,22,8,35,0.00
2013-5-31,86,77,72,75,71,68,91,80,59,29.99,29.91,16,5,25,0.00
2013-6-1,85,77,73,75,72,70,98,86,66,29.95,29.86,16,4,22,0.40
2013-6-2,86,79,73,76,73,71,99,83,62,29.91,29.81,14,4,25,0.00
2013-6-3,83,78,75,76,74,72,96,88,73,29.91,29.82,12,2,16,0.10
2013-6-4,83,78,75,74,72,70,93,83,68,29.92,29.85,19,3,30,0.00
2013-6-5,83,77,73,74,72,70,96,84,65,29.91,29.78,14,5,29,0.10
2013-6-6,80,76,73,76,73,72,98,92,80,29.78,29.58,31,15,58,1.29
2013-6-7,83,79,75,74,73,71,94,83,69,29.86,29.69,15,5,24,0.00
2013-6-8,85,77,71,78,73,70,98,87,71,30.00,29.87,18,4,30,1.15
2013-6-9,88,78,72,77,74,71,99,86,59,29.99,29.91,16,3,25,0.22
2013-6-10,88,80,75,76,74,67,97,83,59,29.98,29.91,19,4,30,0.00
2013-6-11,90,80,74,78,73,70,96,82,58,29.99,29.91,15,1,24,1.27
2013-6-12,87,82,74,77,73,70,88,73,60,29.98,29.90,22,6,28,0.00
2013-6-13,86,81,77,77,74,72,94,81,67,29.95,29.82,21,6,28,0.00
2013-6-14,85,81,78,74,73,72,85,77,66,29.86,29.78,22,8,34,0.00
2013-6-15,86,82,77,77,74,70,89,79,70,29.94,29.82,19,6,31,0.00
2013-6-16,88,81,76,78,75,73,96,83,63,29.97,29.91,19,4,23,0.00
2013-6-17,89,83,77,77,75,71,94,77,59,29.97,29.88,22,5,28,0.00
2013-6-18,89,83,77,77,75,70,93,76,58,29.95,29.86,19,4,23,0.00
2013-6-19,88,82,75,78,75,72,92,79,65,29.92,29.87,18,3,24,0.02
2013-6-20,87,82,76,76,73,69,89,74,57,29.98,29.91,18,4,34,0.00
2013-6-21,88,79,74,76,72,70,92,78,58,30.00,29.92,17,3,24,0.02
2013-6-22,89,80,72,74,71,65,95,76,49,30.00,29.93,19,4,22,0.00
2013-6-23,90,79,73,75,73,67,98,84,48,30.02,29.94,26,2,48,1.44
2013-6-24,92,81,74,76,73,67,97,80,44,30.06,29.94,19,2,23,0.08
2013-6-25,91,82,74,76,73,67,94,77,46,30.03,29.89,18,3,33,0.22
2013-6-26,88,80,75,76,71,-100,92,75,60,29.98,29.92,14,-4,24,0.23
2013-6-27,87,80,72,76,73,69,96,80,63,29.97,29.86,19,3,29,0.00
2013-6-28,86,81,75,77,73,-100,92,80,63,29.89,29.77,21,4,31,0.15
2013-6-29,86,81,77,76,75,72,93,82,64,29.80,29.72,23,4,35,0.07
2013-6-30,86,81,75,78,75,72,95,83,68,29.80,29.73,22,6,37,0.27
2013-7-1,78,75,73,75,74,72,99,95,87,29.90,29.77,19,5,30,1.09
2013-7-2,87,78,73,76,73,71,99,88,59,30.00,29.88,19,5,33,0.72
2013-7-3,88,77,73,75,74,69,99,91,63,30.03,29.94,25,4,43,1.56
2013-7-4,88,77,71,75,73,68,99,89,58,30.05,29.97,18,4,25,1.48
2013-7-5,88,77,72,77,74,70,99,91,64,30.05,29.97,21,3,39,0.10
2013-7-6,91,80,73,76,74,68,99,83,49,30.02,29.92,15,4,26,0.00
2013-7-7,91,81,75,78,74,68,94,80,51,30.03,29.92,19,3,24,0.36
2013-7-8,91,81,75,76,73,69,96,78,53,30.07,29.98,12,2,18,0.34
2013-7-9,92,82,74,75,72,67,94,72,46,30.08,29.96,10,1,38,0.00
2013-7-10,86,79,74,75,72,69,96,81,57,30.00,29.88,17,2,28,0.46
2013-7-11,84,80,75,75,74,71,97,83,68,29.94,29.85,15,2,22,0.40
2013-7-12,85,80,76,77,74,70,96,82,66,29.88,29.80,14,3,23,0.00
2013-7-13,84,78,74,75,73,70,96,86,66,29.90,29.82,13,2,21,0.47
2013-7-14,83,76,73,77,73,70,98,91,77,29.99,29.86,20,2,24,0.59
2013-7-15,90,79,73,74,72,69,98,82,52,30.01,29.91,10,2,25,0.69
2013-7-16,87,77,74,75,73,69,99,88,58,30.05,29.97,27,3,43,0.10
2013-7-17,87,77,73,76,73,69,97,88,59,30.06,29.98,21,2,34,0.02
2013-7-18,84,76,72,74,72,69,98,88,67,30.02,29.95,9,1,23,0.08
2013-7-19,86,77,72,76,73,69,99,88,65,30.03,29.95,23,3,36,0.08
2013-7-20,88,78,72,78,73,70,98,86,65,30.02,29.93,24,2,31,0.00
2013-7-21,87,81,74,77,75,72,97,82,63,30.03,29.95,16,3,27,0.00
2013-7-22,87,82,77,78,76,74,97,82,66,30.05,29.98,19,4,31,0.00
2013-7-23,87,82,78,76,74,71,89,77,62,30.01,29.89,17,5,28,0.00
2013-7-24,86,83,80,76,74,72,83,76,67,29.93,29.83,25,10,34,0.01
2013-7-25,86,83,79,76,75,73,87,78,69,29.92,29.81,24,13,37,0.01
2013-7-26,86,81,76,78,73,-100,97,80,64,29.93,29.86,21,-8,31,0.42
2013-7-27,-200,0,200,-100,-100,-100,0,0,100,29.92,29.83,0,-999,17,0.00
2013-7-28,88,42,76,77,-12,-100,90,39,62,29.97,29.85,15,-495,22,0.03
2013-7-29,90,41,77,76,-17,-100,90,32,58,30.06,29.94,26,-520,43,0.00
2013-7-30,93,40,77,76,-22,-100,89,28,48,30.08,29.97,21,-547,39,0.08
2013-7-31,91,40,81,77,-19,-100,86,31,54,30.05,29.92,17,-530,36,0.00
2013-8-1,90,40,79,75,-20,-100,84,31,49,29.97,29.85,16,-535,25,0.00
2013-8-2,88,40,83,77,-20,-100,73,31,62,29.96,29.86,18,-536,22,0.00
2013-8-3,89,40,85,76,-21,-100,71,30,61,30.01,29.92,18,-536,27,0.00
2013-8-4,87,42,80,79,-12,-100,86,38,70,30.00,29.92,23,-498,40,0.00
2013-8-5,88,40,85,78,-18,-100,76,33,65,29.95,29.85,22,-528,33,0.00
2013-8-6,89,43,80,78,-11,-100,92,38,65,29.90,29.80,16,-495,18,0.00
2013-8-7,92,35,78,77,-29,-100,84,28,56,29.88,29.80,17,-590,25,0.00
2013-8-8,91,38,76,76,-22,-100,89,30,54,29.93,29.83,14,-550,27,0.00
2013-8-9,92,30,77,76,-39,-100,86,24,52,29.97,29.88,14,-646,23,0.00
2013-8-10,90,40,81,78,-19,-100,84,33,61,30.03,29.94,15,-533,20,0.00
2013-8-11,94,39,80,77,-22,-100,85,29,52,30.05,29.95,15,-554,28,0.00
2013-8-12,94,40,78,78,-21,-100,93,30,49,30.04,29.91,18,-548,21,0.00
2013-8-13,91,42,82,76,-16,-100,80,31,54,29.97,29.85,18,-513,28,0.00
2013-8-14,89,38,84,77,-24,-100,78,30,61,29.92,29.83,13,-561,19,0.00
2013-8-15,88,38,80,77,-22,-100,91,33,60,29.96,29.87,17,-550,23,0.01
2013-8-16,90,42,80,77,-16,-100,82,33,54,29.95,29.86,9,-517,17,0.00
2013-8-17,91,38,79,78,-24,-100,91,30,55,29.98,29.90,21,-560,26,0.00
2013-8-18,91,32,81,78,-36,-100,88,26,55,30.02,29.90,14,-625,22,0.00
2013-8-19,91,30,80,78,-39,-100,92,25,55,29.98,29.86,13,-648,19,0.00
2013-8-20,91,39,76,77,-19,-100,91,34,54,29.98,29.91,14,-529,40,0.10
2013-8-21,93,30,80,77,-42,-100,85,22,51,30.00,29.88,31,-657,37,0.00
2013-8-22,91,29,79,77,-40,-100,90,25,56,29.98,29.88,18,-656,29,0.00
2013-8-23,90,40,78,79,-16,-100,100,36,54,29.93,29.86,17,-520,24,0.05
2013-8-24,91,38,78,77,-23,-100,92,31,57,30.02,29.91,18,-557,33,0.00
2013-8-25,88,36,78,77,-25,-100,96,32,63,30.06,29.97,16,-566,22,0.00
2013-8-26,91,38,78,76,-22,-100,89,32,53,30.05,29.91,15,-546,27,0.00
2013-8-27,88,40,77,76,-17,-100,93,36,61,29.96,29.88,14,-519,26,0.01
2013-8-28,91,37,76,74,-23,-100,86,31,46,29.97,29.89,19,-549,22,0.00
2013-8-29,88,41,79,75,-17,-100,80,32,56,29.95,29.85,22,-515,32,0.00
2013-8-30,87,50,76,76,6,-100,92,47,65,29.90,29.81,21,-392,24,0.01
2013-8-31,87,81,75,76,74,70,96,80,64,29.90,29.80,20,3,32,0.23
2013-9-1,87,81,76,76,74,71,94,80,62,29.90,29.83,18,2,25,0.00
2013-9-2,87,80,75,77,74,69,96,81,66,29.93,29.85,18,3,29,0.00
2013-9-3,89,81,76,78,75,72,96,82,62,29.94,29.84,10,1,19,0.06
2013-9-4,90,80,75,76,74,70,94,83,57,29.99,29.88,18,1,23,0.00
2013-9-5,94,80,74,77,73,69,94,80,50,30.00,29.89,15,1,28,0.00
2013-9-6,90,80,73,78,74,70,97,83,58,29.97,29.84,19,3,34,0.04
2013-9-7,88,79,71,75,72,68,97,82,57,29.93,29.82,17,3,25,0.00
2013-9-8,89,80,72,74,72,70,96,80,55,29.88,29.77,18,3,26,0.00
2013-9-9,92,82,74,74,72,69,96,72,50,29.92,29.83,7,2,21,0.00
2013-9-10,91,82,74,74,71,66,96,71,46,29.98,29.89,12,3,28,0.00
2013-9-11,90,81,74,75,71,65,92,73,48,29.97,29.88,20,4,30,0.00
2013-9-12,87,80,74,76,72,69,94,80,62,29.93,29.79,16,2,20,0.03
2013-9-13,86,80,72,74,72,70,95,80,63,29.83,29.72,18,3,29,0.00
2013-9-14,89,81,75,76,73,70,96,77,56,29.88,29.75,18,4,24,0.00
2013-9-15,92,78,69,76,73,68,97,84,53,30.00,29.86,26,4,34,1.21
2013-9-16,90,78,73,76,73,69,98,88,61,29.97,29.89,17,2,34,0.00
2013-9-17,88,78,72,77,73,71,98,87,61,29.95,29.85,13,2,28,0.23
2013-9-18,90,78,73,75,73,71,98,85,57,29.94,29.86,12,2,20,0.00
2013-9-19,89,79,74,78,73,71,96,83,57,29.95,29.87,9,2,19,0.34
2013-9-20,88,80,72,74,71,67,98,76,50,29.94,29.80,9,2,24,0.00
2013-9-21,87,79,72,73,70,67,89,74,54,29.85,29.69,11,2,23,0.00
2013-9-22,86,81,75,76,74,71,94,81,62,29.77,29.68,18,4,30,0.00
2013-9-23,81,77,75,78,76,74,99,95,84,29.86,29.74,16,2,19,1.63
2013-9-24,78,76,74,77,75,74,100,98,91,29.87,29.76,14,1,21,1.95
2013-9-25,80,75,70,77,73,70,100,94,80,29.87,29.71,35,4,54,1.81
2013-9-26,86,81,77,78,76,70,94,83,66,29.78,29.71,25,9,37,0.00
2013-9-27,85,77,71,73,70,69,95,80,61,29.87,29.77,10,2,27,0.00
2013-9-28,88,78,71,74,71,69,96,80,57,29.91,29.82,14,3,23,0.00
2013-9-29,88,78,71,72,69,62,93,75,44,29.90,29.80,16,3,25,0.00
2013-9-30,88,79,71,74,70,64,96,76,48,29.90,29.81,11,2,23,0.00
2013-10-1,90,80,72,74,71,67,96,74,49,29.95,29.85,9,2,19,0.00
2013-10-2,89,80,72,73,71,69,95,75,55,29.95,29.86,11,3,23,0.00
2013-10-3,89,80,73,74,71,68,91,76,53,29.97,29.87,8,1,20,0.00
2013-10-4,88,80,75,74,72,68,93,77,54,29.99,29.90,11,1,17,0.00
2013-10-5,89,80,72,74,71,67,94,77,51,29.97,29.84,16,3,24,0.00
2013-10-6,87,79,72,75,72,68,97,79,54,29.89,29.77,16,3,25,0.00
2013-10-7,84,78,74,77,74,72,98,87,76,29.78,29.68,24,8,41,0.76
2013-10-8,84,80,75,75,73,71,87,79,68,29.86,29.72,19,10,33,0.00
2013-10-9,79,74,69,72,68,65,92,82,70,29.95,29.85,9,2,17,0.00
2013-10-10,84,74,65,70,67,64,97,81,59,29.97,29.87,16,3,23,0.00
2013-10-11,85,76,67,69,66,62,96,74,47,29.95,29.86,13,3,18,0.00
2013-10-12,84,76,67,66,64,58,88,69,45,29.96,29.89,15,4,22,0.00
2013-10-13,86,76,66,69,63,59,89,67,43,29.99,29.89,15,2,28,0.00
2013-10-14,83,75,66,69,65,62,93,73,52,29.96,29.83,18,4,26,0.00
2013-10-15,78,73,67,71,68,66,96,85,73,29.91,29.81,14,3,21,0.00
2013-10-16,80,74,69,72,69,67,96,84,69,29.88,29.82,16,3,20,0.00
2013-10-17,84,76,69,72,69,67,95,81,57,29.89,29.81,18,4,25,0.00
2013-10-18,86,78,71,73,71,69,95,81,60,29.89,29.80,14,2,21,0.00
2013-10-19,86,78,73,76,73,69,96,84,58,29.86,29.78,12,2,22,0.00
2013-10-20,84,79,74,77,74,71,99,84,66,29.87,29.78,13,3,22,0.00
2013-10-21,85,78,74,76,72,70,98,84,62,29.91,29.83,16,2,24,0.00
2013-10-22,85,77,72,76,73,71,99,87,72,29.86,29.73,37,5,45,0.52
2013-10-23,79,75,72,74,64,48,100,71,37,29.92,29.72,20,6,29,0.00
2013-10-24,72,67,62,56,52,44,81,58,44,30.08,29.92,10,3,26,0.00
2013-10-25,79,69,60,61,56,49,92,66,38,30.15,30.05,14,3,24,0.00
2013-10-26,77,67,58,61,57,39,90,71,28,30.12,30.01,15,3,21,0.00
2013-10-27,79,66,56,60,56,53,94,72,46,30.04,29.96,14,2,23,0.00
2013-10-28,80,69,58,62,58,55,91,69,43,30.09,30.00,15,2,23,0.00
2013-10-29,84,73,63,65,62,56,92,70,39,30.14,30.02,7,2,20,0.00
2013-10-30,86,74,66,68,64,61,94,74,46,30.13,29.99,10,2,26,0.00
2013-10-31,85,74,66,70,66,63,94,77,50,30.03,29.89,13,2,23,0.00
2013-11-1,82,76,71,74,71,69,95,85,70,29.92,29.80,19,5,34,0.00
2013-11-2,78,73,67,75,68,62,95,86,72,29.89,29.74,31,3,34,0.22
2013-11-3,76,68,62,62,50,39,83,56,27,30.02,29.88,14,3,26,0.00
2013-11-4,80,69,58,62,57,50,85,68,46,30.05,29.97,16,6,36,0.00
2013-11-5,82,73,65,70,66,62,96,79,62,30.04,29.95,16,6,36,0.00
2013-11-6,85,75,69,69,67,64,95,76,51,30.01,29.91,8,2,30,0.00
2013-11-7,78,72,66,69,67,65,97,84,69,29.97,29.88,14,2,20,0.00
2013-11-8,79,71,65,68,64,60,93,79,55,30.02,29.91,12,4,30,0.00
2013-11-9,83,72,64,68,63,60,86,74,59,30.06,29.98,13,3,27,0.00
2013-11-10,82,72,65,67,64,62,91,76,58,30.08,29.97,8,2,28,0.00
2013-11-11,83,73,66,68,65,64,93,78,57,30.06,29.97,8,1,17,0.00
2013-11-12,78,71,65,69,66,58,96,84,65,30.02,29.91,14,3,24,0.00
2013-11-13,70,62,54,57,50,47,79,65,52,30.21,29.99,19,9,40,0.00
2013-11-14,75,65,52,58,53,48,88,68,48,30.20,30.06,15,4,35,0.02
2013-11-15,75,66,62,65,56,-100,88,77,66,30.08,29.95,9,-35,16,0.00
2013-11-16,78,72,69,70,66,64,90,82,69,30.02,29.93,11,2,19,0.00
2013-11-17,84,75,69,70,67,63,91,77,55,29.98,29.90,12,2,20,0.00
2013-11-18,81,74,69,72,70,67,96,86,69,29.94,29.85,18,2,22,0.00
2013-11-19,80,74,68,73,69,61,98,86,68,29.88,29.78,14,3,21,0.00
2013-11-20,83,72,64,71,66,61,90,84,65,29.99,29.87,11,3,21,0.00
2013-11-21,84,71,70,71,61,-100,96,81,64,30.08,29.97,13,-47,28,0.00
2013-11-22,83,75,69,71,68,64,96,81,62,30.09,29.99,14,2,23,0.00
2013-11-23,81,71,64,68,65,62,97,81,59,30.03,29.92,20,3,27,0.00
2013-11-24,73,67,60,66,61,52,94,81,67,30.12,29.95,14,6,34,0.00
2013-11-25,77,68,60,64,58,53,86,70,55,30.11,29.95,20,8,38,0.00
2013-11-26,81,73,67,73,69,63,97,87,69,29.95,29.68,28,12,48,0.23
2013-11-27,72,65,50,72,57,37,98,77,61,30.11,29.67,41,21,52,0.04
2013-11-28,62,51,39,50,41,32,85,68,54,30.25,30.12,14,3,41,0.00
2013-11-29,72,60,50,56,52,48,94,75,48,30.26,30.16,14,4,28,0.00
2013-11-30,76,64,54,63,57,50,94,80,64,30.22,30.08,12,3,28,0.00
2013-12-1,71,63,60,64,61,58,99,94,78,30.09,29.91,18,3,21,0.00
2013-12-2,67,64,59,62,60,57,99,88,72,29.90,29.77,5,0,10,0.00
2013-12-3,76,68,60,67,63,57,96,82,68,29.89,29.80,12,2,20,0.00
2013-12-4,80,72,65,69,66,64,99,85,63,29.99,29.88,15,3,28,0.00
2013-12-5,81,71,64,68,66,63,98,84,58,30.08,29.98,10,2,23,0.00
2013-12-6,82,73,65,71,68,65,99,86,63,30.08,29.98,20,4,31,0.00
2013-12-7,82,72,66,69,67,63,99,86,54,30.14,30.05,9,1,18,0.00
2013-12-8,83,72,65,69,66,63,99,82,52,30.12,30.00,15,2,32,0.00
2013-12-9,81,72,66,71,68,65,98,86,60,30.09,30.00,17,3,27,0.00
2013-12-10,80,72,63,71,68,63,99,88,70,30.08,29.99,13,3,26,0.00
2013-12-11,82,71,64,70,66,60,96,84,59,30.15,30.05,8,2,20,0.00
2013-12-12,72,65,54,66,52,31,99,67,32,30.21,30.09,13,3,27,0.00
2013-12-13,76,63,50,58,50,33,84,65,39,30.20,30.00,11,3,21,0.00
2013-12-14,81,72,63,71,66,58,94,83,65,30.01,29.86,21,9,37,0.00
2013-12-15,74,69,61,74,64,56,99,86,68,30.04,29.82,18,7,33,0.24
2013-12-16,64,57,51,56,48,42,88,74,50,30.14,30.02,15,3,27,0.00
2013-12-17,69,57,46,55,48,42,86,72,56,30.17,30.06,16,2,23,0.00
2013-12-18,71,58,45,53,46,40,95,68,36,30.20,30.11,11,1,23,0.00
2013-12-19,78,62,47,57,50,44,93,70,38,30.18,30.06,7,2,17,0.04
2013-12-20,83,69,59,67,60,55,87,75,57,30.09,29.98,11,4,15,0.00